{"data":{"norad_id":60344,"epoch":"2026-09-21T08:01:19.011648Z","epoch_age_seconds":113522,"freshness":"FRESH","line1":"1 60344U 24136R   26264.33424782  .00000193  00000+0  16847-4 0  9998","line2":"2 60344  53.1589 245.8507 0001416  81.4627 278.6536 15.34387826119635","mean_motion":15.34387826,"eccentricity":0.0001416,"inclination_deg":53.1589,"raan_deg":245.8507,"arg_perigee_deg":81.4627,"mean_anomaly_deg":278.6536,"bstar":1.6847e-5,"rev_number":11963,"period_min":93.848502679661,"perigee_km":461.77075603824,"apogee_km":463.70809224156,"semimajor_km":6840.8764241399,"source":"CELESTRAK","updated_at":"2026-09-22T09:00:49.221836Z"}}